User: anonymous   Login
Location: Gombori
(14.9797°N, 2.9419°W)
Time: 15:15:55
(UTC+00:00)
Language:

Cosmos 2150 Rocket - Orbit

View from above orbital plane
View from above orbital plane
View from above satellite
View from above satellite

Ground track
Ground track

The orbit data is extracted from the following two-line orbital elements,

1 21419U 91041B   21290.45277140 -.00000049  00000-0 -79766-5 0  9991
2 21419  74.0362 283.3565 0041072 185.9765 174.0902 14.34014252587074
Epoch (UTC): 17 October 2021 10:51:59
Eccentricity: 0.0041072
inclination: 74.0362°
perigee height: 749 km
apogee height: 808 km
right ascension of ascending node: 283.3565°
argument of perigee: 185.9765°
revolutions per day: 14.34014252
mean anomaly at epoch: 174.0902°
orbit number at epoch: 58707

The dashed part of the orbit path shows where the satellite is in the earth's shadow,  

DLR